Volver al catálogo

ARIANE 44L+ DEB

ActivoGTO
NORAD 23241·DEBRIS·🇫🇷 France

Lanzado Apr 15, 1992 desde Guiana Space Centre

Loading…

TLE

EnvejeciendoSource: Space-Track

Época: Sep 14, 2026, 16:25 UTC

1 23241U 92021L   26257.68447484  .00000344  00000-0  28464-1 0  9999
2 23241   3.6326 266.1838 7046226 332.9977 229.1900  2.24742851266041

Sigue ARIANE 44L+ DEB en tiempo real con AllMySat

Download on the App Store